Time,TemperatureF,DewpointF,PressureIn,WindDirection,WindDirectionDegrees,WindSpeedMPH,WindSpeedGustMPH,Humidity,HourlyPrecipIn,Conditions,Clouds,dailyrainin,SoftwareType,DateUTC
2013-05-29 00:01:00,52.6,49.1,29.52,NE,45,0.0,0.0,88,0.00,,,0.00,WUHU216HW,2013-05-29 07:01:00,
2013-05-29 00:06:00,52.4,48.9,29.52,NE,45,0.0,0.0,88,0.00,,,0.00,WUHU216HW,2013-05-29 07:06:00,
2013-05-29 00:11:00,52.4,48.9,29.51,NE,45,0.0,0.0,88,0.00,,,0.00,WUHU216HW,2013-05-29 07:11:00,
2013-05-29 00:16:00,52.2,48.7,29.51,NE,45,0.0,0.0,88,0.00,,,0.00,WUHU216HW,2013-05-29 07:16:00,
2013-05-29 00:21:00,52.2,48.7,29.51,NE,45,0.0,0.0,88,0.00,,,0.00,WUHU216HW,2013-05-29 07:21:00,
2013-05-29 00:26:00,52.2,48.7,29.51,NE,45,0.0,0.0,88,0.00,,,0.00,WUHU216HW,2013-05-29 07:26:00,
2013-05-29 00:31:00,52.2,48.7,29.51,NE,45,0.0,0.0,88,0.00,,,0.00,WUHU216HW,2013-05-29 07:31:00,
2013-05-29 00:36:00,52.0,48.5,29.51,NE,45,0.0,0.0,88,0.00,,,0.00,WUHU216HW,2013-05-29 07:36:00,
2013-05-29 00:41:00,52.0,48.5,29.51,NE,45,0.0,0.0,88,0.00,,,0.00,WUHU216HW,2013-05-29 07:41:00,
2013-05-29 00:46:00,52.0,48.5,29.51,NE,45,0.0,0.0,88,0.00,,,0.00,WUHU216HW,2013-05-29 07:46:00,
2013-05-29 00:51:00,52.0,48.9,29.51,NE,45,0.0,0.0,89,0.00,,,0.00,WUHU216HW,2013-05-29 07:51:00,
2013-05-29 00:56:00,52.0,48.9,29.51,NE,45,0.0,0.0,89,0.00,,,0.00,WUHU216HW,2013-05-29 07:56:00,
2013-05-29 01:01:00,52.0,48.9,29.51,NE,45,0.0,0.0,89,0.00,,,0.00,WUHU216HW,2013-05-29 08:01:00,
2013-05-29 01:06:00,52.0,48.9,29.51,NE,45,0.0,0.0,89,0.00,,,0.00,WUHU216HW,2013-05-29 08:06:00,
2013-05-29 01:11:00,51.8,48.7,29.51,NE,45,0.0,0.0,89,0.00,,,0.00,WUHU216HW,2013-05-29 08:11:00,
2013-05-29 01:16:00,51.8,48.7,29.51,NE,45,0.0,0.0,89,0.00,,,0.00,WUHU216HW,2013-05-29 08:16:00,
2013-05-29 01:21:00,51.8,48.7,29.51,NE,45,0.0,0.0,89,0.00,,,0.00,WUHU216HW,2013-05-29 08:21:00,
2013-05-29 01:26:00,51.8,48.7,29.51,NE,45,0.0,0.0,89,0.00,,,0.00,WUHU216HW,2013-05-29 08:26:00,
2013-05-29 01:31:00,51.8,48.7,29.51,NE,45,0.0,0.0,89,0.00,,,0.00,WUHU216HW,2013-05-29 08:31:00,
2013-05-29 01:36:00,51.8,48.7,29.51,NE,45,0.0,0.0,89,0.00,,,0.00,WUHU216HW,2013-05-29 08:36:00,
2013-05-29 01:41:00,51.8,48.7,29.51,NE,45,0.0,0.0,89,0.00,,,0.00,WUHU216HW,2013-05-29 08:41:00,
2013-05-29 01:46:00,51.8,48.7,29.51,NE,45,0.0,0.0,89,0.00,,,0.00,WUHU216HW,2013-05-29 08:46:00,
2013-05-29 01:51:00,52.0,48.9,29.50,NE,45,0.0,0.0,89,0.00,,,0.00,WUHU216HW,2013-05-29 08:51:00,
2013-05-29 01:56:00,52.0,48.9,29.50,NE,45,0.0,0.0,89,0.00,,,0.00,WUHU216HW,2013-05-29 08:56:00,
2013-05-29 02:01:00,52.0,48.9,29.50,NE,45,0.0,0.0,89,0.00,,,0.00,WUHU216HW,2013-05-29 09:01:00,
2013-05-29 02:06:00,52.2,49.1,29.50,NE,45,0.0,0.0,89,0.00,,,0.00,WUHU216HW,2013-05-29 09:06:00,
2013-05-29 02:11:00,52.2,49.3,29.49,NE,45,0.0,0.0,90,0.00,,,0.00,WUHU216HW,2013-05-29 09:11:00,
2013-05-29 02:16:00,52.2,49.3,29.49,NE,45,0.0,0.0,90,0.00,,,0.00,WUHU216HW,2013-05-29 09:16:00,
2013-05-29 02:21:00,52.2,49.3,29.49,NE,45,0.0,0.0,90,0.00,,,0.00,WUHU216HW,2013-05-29 09:21:00,
2013-05-29 02:26:00,52.2,49.3,29.49,NE,45,0.0,0.0,90,0.00,,,0.00,WUHU216HW,2013-05-29 09:26:00,
2013-05-29 02:31:00,52.2,49.3,29.49,NE,45,0.0,0.0,90,0.00,,,0.00,WUHU216HW,2013-05-29 09:31:00,
2013-05-29 02:36:00,52.2,49.3,29.49,NE,45,0.0,0.0,90,0.00,,,0.00,WUHU216HW,2013-05-29 09:36:00,
2013-05-29 02:41:00,52.2,49.3,29.48,NE,45,0.0,0.0,90,0.00,,,0.00,WUHU216HW,2013-05-29 09:41:00,
2013-05-29 02:46:00,52.2,49.3,29.48,NE,45,0.2,0.2,90,0.00,,,0.00,WUHU216HW,2013-05-29 09:46:00,
2013-05-29 02:51:00,52.2,49.3,29.48,NE,45,0.0,0.2,90,0.00,,,0.00,WUHU216HW,2013-05-29 09:51:00,
2013-05-29 02:56:00,52.2,49.3,29.48,NE,45,0.0,0.0,90,0.00,,,0.00,WUHU216HW,2013-05-29 09:56:00,
2013-05-29 03:01:00,52.2,49.3,29.48,NE,45,0.0,0.0,90,0.00,,,0.00,WUHU216HW,2013-05-29 10:01:00,
2013-05-29 03:06:00,52.2,49.3,29.48,NE,45,0.0,0.0,90,0.00,,,0.00,WUHU216HW,2013-05-29 10:06:00,
2013-05-29 03:11:00,52.2,49.3,29.48,NE,45,0.0,0.0,90,0.00,,,0.00,WUHU216HW,2013-05-29 10:11:00,
2013-05-29 03:16:00,52.2,49.3,29.48,NE,45,0.0,0.0,90,0.00,,,0.00,WUHU216HW,2013-05-29 10:16:00,
2013-05-29 03:21:00,52.2,49.3,29.48,NE,45,0.0,0.0,90,0.00,,,0.00,WUHU216HW,2013-05-29 10:21:00,
2013-05-29 03:26:00,52.2,49.3,29.47,NE,45,0.0,0.0,90,0.00,,,0.00,WUHU216HW,2013-05-29 10:26:00,
2013-05-29 03:31:00,52.2,49.3,29.47,NE,45,0.4,0.4,90,0.00,,,0.00,WUHU216HW,2013-05-29 10:31:00,
2013-05-29 03:36:00,52.2,49.3,29.47,NE,45,0.0,0.4,90,0.00,,,0.00,WUHU216HW,2013-05-29 10:36:00,
2013-05-29 03:41:00,52.2,49.3,29.47,East,90,0.4,1.1,90,0.00,,,0.00,WUHU216HW,2013-05-29 10:41:00,
2013-05-29 03:46:00,52.0,49.1,29.46,East,90,0.0,1.1,90,0.00,,,0.00,WUHU216HW,2013-05-29 10:46:00,
2013-05-29 03:51:00,52.0,49.1,29.46,East,90,0.0,0.0,90,0.00,,,0.00,WUHU216HW,2013-05-29 10:51:00,
2013-05-29 03:56:00,51.8,49.0,29.46,East,90,0.0,0.0,90,0.00,,,0.00,WUHU216HW,2013-05-29 10:56:00,
2013-05-29 04:01:00,51.8,49.0,29.46,East,90,0.0,0.0,90,0.00,,,0.00,WUHU216HW,2013-05-29 11:01:00,
2013-05-29 04:06:00,51.7,48.5,29.46,East,90,0.0,0.0,89,0.00,,,0.00,WUHU216HW,2013-05-29 11:06:00,
2013-05-29 04:11:00,51.7,48.5,29.46,East,90,0.0,0.0,89,0.00,,,0.00,WUHU216HW,2013-05-29 11:11:00,
2013-05-29 04:16:00,51.7,48.5,29.46,East,90,0.0,0.0,89,0.00,,,0.00,WUHU216HW,2013-05-29 11:16:00,
2013-05-29 04:21:00,51.7,48.5,29.46,East,90,0.0,0.0,89,0.00,,,0.00,WUHU216HW,2013-05-29 11:21:00,
2013-05-29 04:26:00,51.7,48.5,29.46,East,90,0.0,0.0,89,0.00,,,0.00,WUHU216HW,2013-05-29 11:26:00,
2013-05-29 04:31:00,51.5,48.3,29.45,East,90,0.0,0.0,89,0.00,,,0.00,WUHU216HW,2013-05-29 11:31:00,
2013-05-29 04:36:00,51.5,48.3,29.45,East,90,0.0,0.0,89,0.00,,,0.00,WUHU216HW,2013-05-29 11:36:00,
2013-05-29 04:41:00,51.5,48.3,29.45,East,90,0.0,0.0,89,0.00,,,0.00,WUHU216HW,2013-05-29 11:41:00,
2013-05-29 04:46:00,51.5,48.3,29.45,East,90,0.0,0.0,89,0.00,,,0.00,WUHU216HW,2013-05-29 11:46:00,
2013-05-29 04:51:00,51.5,48.3,29.45,East,90,0.0,0.0,89,0.00,,,0.00,WUHU216HW,2013-05-29 11:51:00,
2013-05-29 04:56:00,51.5,48.3,29.44,East,90,0.0,0.0,89,0.00,,,0.00,WUHU216HW,2013-05-29 11:56:00,
2013-05-29 05:01:00,51.5,48.6,29.44,East,90,0.0,0.0,90,0.00,,,0.00,WUHU216HW,2013-05-29 12:01:00,
2013-05-29 05:06:00,51.5,48.6,29.44,East,90,0.0,0.0,90,0.00,,,0.00,WUHU216HW,2013-05-29 12:06:00,
2013-05-29 05:11:00,51.5,48.6,29.44,East,90,0.0,0.0,90,0.00,,,0.00,WUHU216HW,2013-05-29 12:11:00,
2013-05-29 05:16:00,51.5,48.6,29.44,East,90,0.0,0.0,90,0.00,,,0.00,WUHU216HW,2013-05-29 12:16:00,
2013-05-29 05:21:00,51.5,48.6,29.44,East,90,0.0,0.0,90,0.00,,,0.00,WUHU216HW,2013-05-29 12:21:00,
2013-05-29 05:26:00,51.5,48.6,29.44,East,90,0.0,0.0,90,0.00,,,0.00,WUHU216HW,2013-05-29 12:26:00,
2013-05-29 05:31:00,51.5,48.6,29.44,East,90,0.0,0.0,90,0.00,,,0.00,WUHU216HW,2013-05-29 12:31:00,
2013-05-29 05:36:00,51.5,48.6,29.44,East,90,0.0,0.0,90,0.00,,,0.00,WUHU216HW,2013-05-29 12:36:00,
2013-05-29 05:41:00,51.5,48.6,29.44,East,90,0.0,0.0,90,0.00,,,0.00,WUHU216HW,2013-05-29 12:41:00,
2013-05-29 05:46:00,51.5,48.6,29.44,East,90,0.0,0.0,90,0.00,,,0.00,WUHU216HW,2013-05-29 12:46:00,
2013-05-29 05:51:00,51.5,48.6,29.43,East,90,0.0,0.0,90,0.00,,,0.00,WUHU216HW,2013-05-29 12:51:00,
2013-05-29 05:56:00,51.5,48.6,29.43,East,90,0.0,0.0,90,0.00,,,0.00,WUHU216HW,2013-05-29 12:56:00,
2013-05-29 06:01:00,51.5,48.6,29.43,East,90,0.0,0.0,90,0.00,,,0.00,WUHU216HW,2013-05-29 13:01:00,
2013-05-29 06:06:00,51.5,48.6,29.43,ENE,68,0.0,0.0,90,0.00,,,0.00,WUHU216HW,2013-05-29 13:06:00,
2013-05-29 06:11:00,51.5,48.6,29.43,ENE,68,0.0,0.0,90,0.00,,,0.00,WUHU216HW,2013-05-29 13:11:00,
2013-05-29 06:16:00,51.5,48.6,29.43,ENE,68,0.0,0.0,90,0.00,,,0.00,WUHU216HW,2013-05-29 13:16:00,
2013-05-29 06:21:00,51.5,48.6,29.43,ENE,68,0.0,0.0,90,0.00,,,0.00,WUHU216HW,2013-05-29 13:21:00,
2013-05-29 06:26:00,51.5,48.6,29.44,South,180,0.4,0.4,90,0.00,,,0.00,WUHU216HW,2013-05-29 13:26:00,
2013-05-29 06:31:00,51.5,48.6,29.44,South,180,0.7,0.7,90,0.00,,,0.00,WUHU216HW,2013-05-29 13:31:00,
2013-05-29 06:36:00,51.7,48.8,29.44,South,180,0.0,0.7,90,0.00,,,0.00,WUHU216HW,2013-05-29 13:36:00,
2013-05-29 06:41:00,51.8,49.2,29.43,SE,135,0.0,0.4,91,0.00,,,0.00,WUHU216HW,2013-05-29 13:41:00,
2013-05-29 06:46:00,52.0,49.4,29.43,SE,135,0.0,0.0,91,0.00,,,0.00,WUHU216HW,2013-05-29 13:46:00,
2013-05-29 06:51:00,52.0,49.4,29.43,SE,135,0.0,0.2,91,0.00,,,0.00,WUHU216HW,2013-05-29 13:51:00,
2013-05-29 06:56:00,52.2,49.6,29.43,SE,135,0.0,0.2,91,0.00,,,0.00,WUHU216HW,2013-05-29 13:56:00,
2013-05-29 07:01:00,52.2,49.6,29.43,SE,135,0.0,0.0,91,0.00,,,0.00,WUHU216HW,2013-05-29 14:01:00,
2013-05-29 07:06:00,52.6,50.0,29.43,SE,135,0.0,0.0,91,0.00,,,0.00,WUHU216HW,2013-05-29 14:06:00,
2013-05-29 07:11:00,52.6,50.0,29.44,SE,135,0.0,0.0,91,0.00,,,0.00,WUHU216HW,2013-05-29 14:11:00,
2013-05-29 07:16:00,52.6,50.0,29.44,WSW,248,0.0,0.2,91,0.00,,,0.00,WUHU216HW,2013-05-29 14:16:00,
2013-05-29 07:21:00,52.7,49.9,29.44,SSE,158,0.0,0.2,90,0.00,,,0.00,WUHU216HW,2013-05-29 14:21:00,
2013-05-29 07:26:00,52.7,49.9,29.44,SSW,203,0.9,1.1,90,0.00,,,0.00,WUHU216HW,2013-05-29 14:26:00,
2013-05-29 07:31:00,52.9,50.0,29.44,SW,225,0.7,1.1,90,0.00,,,0.00,WUHU216HW,2013-05-29 14:31:00,
2013-05-29 07:36:00,52.9,50.0,29.45,SSE,158,0.2,1.1,90,0.00,,,0.00,WUHU216HW,2013-05-29 14:36:00,
2013-05-29 07:41:00,52.9,50.0,29.45,South,180,0.2,0.2,90,0.00,,,0.00,WUHU216HW,2013-05-29 14:41:00,
2013-05-29 07:46:00,52.9,50.0,29.45,WSW,248,0.0,0.4,90,0.00,,,0.00,WUHU216HW,2013-05-29 14:46:00,
2013-05-29 07:51:00,53.1,50.2,29.45,SE,135,0.0,0.4,90,0.00,,,0.00,WUHU216HW,2013-05-29 14:51:00,
2013-05-29 07:56:00,53.5,50.6,29.45,SE,135,0.0,0.4,90,0.00,,,0.00,WUHU216HW,2013-05-29 14:56:00,
2013-05-29 08:01:00,53.6,50.8,29.45,SSE,158,0.4,0.4,90,0.00,,,0.00,WUHU216HW,2013-05-29 15:01:00,
2013-05-29 08:06:00,53.8,50.9,29.45,WNW,293,0.0,1.1,90,0.00,,,0.00,WUHU216HW,2013-05-29 15:06:00,
2013-05-29 08:11:00,54.2,51.0,29.46,South,170,1.0,1.6,89,0.00,,,0.00,WUHU216HW,2013-05-29 15:11:00,
2013-05-29 08:16:00,54.4,51.2,29.46,West,270,0.2,1.6,89,0.00,,,0.00,WUHU216HW,2013-05-29 15:16:00,
2013-05-29 08:21:00,54.4,50.9,29.46,West,270,0.7,1.1,88,0.00,,,0.00,WUHU216HW,2013-05-29 15:21:00,
2013-05-29 08:26:00,54.7,51.2,29.46,West,270,0.4,1.1,88,0.00,,,0.00,WUHU216HW,2013-05-29 15:26:00,
2013-05-29 08:31:00,54.9,51.4,29.46,WSW,248,0.3,1.1,88,0.00,,,0.00,WUHU216HW,2013-05-29 15:31:00,
2013-05-29 08:36:00,55.1,51.6,29.46,WNW,293,1.1,1.1,88,0.00,,,0.00,WUHU216HW,2013-05-29 15:36:00,
2013-05-29 08:41:00,55.4,51.9,29.46,NNW,338,0.0,1.1,88,0.00,,,0.00,WUHU216HW,2013-05-29 15:41:00,
2013-05-29 08:46:00,55.4,51.6,29.46,SW,219,0.9,1.1,87,0.00,,,0.00,WUHU216HW,2013-05-29 15:46:00,
2013-05-29 08:51:00,55.3,51.4,29.46,SSW,203,6.5,6.5,87,0.00,,,0.00,WUHU216HW,2013-05-29 15:51:00,
2013-05-29 08:56:00,55.1,51.2,29.46,SSW,207,1.4,6.5,87,0.00,,,0.00,WUHU216HW,2013-05-29 15:56:00,
2013-05-29 09:01:00,55.1,51.6,29.46,WSW,248,2.7,5.4,88,0.00,,,0.00,WUHU216HW,2013-05-29 16:01:00,
2013-05-29 09:06:00,55.3,51.8,29.46,West,270,0.0,2.7,88,0.00,,,0.00,WUHU216HW,2013-05-29 16:06:00,
2013-05-29 09:11:00,55.4,51.9,29.46,WNW,293,0.0,1.6,88,0.00,,,0.00,WUHU216HW,2013-05-29 16:11:00,
2013-05-29 09:16:00,55.8,52.3,29.46,WNW,293,1.3,1.3,88,0.00,,,0.00,WUHU216HW,2013-05-29 16:16:00,
2013-05-29 09:21:00,55.8,51.9,29.46,South,180,3.4,3.4,87,0.00,,,0.00,WUHU216HW,2013-05-29 16:21:00,
2013-05-29 09:26:00,56.0,52.1,29.47,SW,225,1.6,3.4,87,0.00,,,0.00,WUHU216HW,2013-05-29 16:26:00,
2013-05-29 09:31:00,56.0,52.1,29.47,SSE,158,3.4,3.4,87,0.00,,,0.00,WUHU216HW,2013-05-29 16:31:00,
2013-05-29 09:36:00,56.0,52.1,29.47,SW,236,1.2,3.4,87,0.00,,,0.00,WUHU216HW,2013-05-29 16:36:00,
2013-05-29 09:41:00,56.0,52.1,29.47,SSE,158,1.6,3.1,87,0.00,,,0.00,WUHU216HW,2013-05-29 16:41:00,
2013-05-29 09:46:00,55.8,51.7,29.47,WSW,248,0.7,3.1,86,0.00,,,0.00,WUHU216HW,2013-05-29 16:46:00,
2013-05-29 09:51:00,55.8,51.9,29.47,WSW,248,0.0,2.5,87,0.00,,,0.00,WUHU216HW,2013-05-29 16:51:00,
2013-05-29 09:56:00,56.0,52.1,29.47,WNW,293,0.4,2.5,87,0.00,,,0.00,WUHU216HW,2013-05-29 16:56:00,
2013-05-29 10:01:00,56.2,52.0,29.48,NW,321,0.3,0.7,86,0.00,,,0.00,WUHU216HW,2013-05-29 17:01:00,
2013-05-29 10:06:00,56.2,52.0,29.48,West,270,1.1,1.1,86,0.00,,,0.00,WUHU216HW,2013-05-29 17:06:00,
2013-05-29 10:11:00,56.2,52.0,29.48,SW,225,1.3,1.3,86,0.00,,,0.00,WUHU216HW,2013-05-29 17:11:00,
2013-05-29 10:16:00,56.0,51.9,29.48,SW,231,1.3,2.5,86,0.00,,,0.00,WUHU216HW,2013-05-29 17:16:00,
2013-05-29 10:21:00,55.8,51.7,29.48,SW,225,3.2,3.4,86,0.00,,,0.00,WUHU216HW,2013-05-29 17:21:00,
2013-05-29 10:26:00,55.4,51.3,29.48,SSE,158,2.5,3.4,86,0.00,,,0.00,WUHU216HW,2013-05-29 17:26:00,
2013-05-29 10:31:00,55.1,51.0,29.48,WSW,248,1.3,3.1,86,0.00,,,0.00,WUHU216HW,2013-05-29 17:31:00,
2013-05-29 10:36:00,54.9,50.8,29.48,WSW,248,2.2,3.1,86,0.00,,,0.00,WUHU216HW,2013-05-29 17:36:00,
2013-05-29 10:41:00,54.7,50.9,29.48,WSW,237,2.3,3.4,87,0.00,,,0.00,WUHU216HW,2013-05-29 17:41:00,
2013-05-29 10:46:00,54.5,50.8,29.49,SE,135,3.4,3.4,87,0.00,,,0.00,WUHU216HW,2013-05-29 17:46:00,
2013-05-29 10:51:00,54.4,50.9,29.49,WSW,256,1.6,4.7,88,0.00,,,0.00,WUHU216HW,2013-05-29 17:51:00,
2013-05-29 10:56:00,54.0,50.5,29.49,WSW,237,2.8,4.7,88,0.00,,,0.00,WUHU216HW,2013-05-29 17:56:00,
2013-05-29 11:01:00,54.0,50.5,29.49,South,180,2.5,4.9,88,0.00,,,0.00,WUHU216HW,2013-05-29 18:01:00,
2013-05-29 11:06:00,53.8,50.7,29.50,SSW,194,2.3,4.9,89,0.00,,,0.00,WUHU216HW,2013-05-29 18:06:00,
2013-05-29 11:11:00,53.8,50.7,29.50,SW,225,2.4,4.9,89,0.00,,,0.00,WUHU216HW,2013-05-29 18:11:00,
2013-05-29 11:17:00,53.8,50.7,29.50,SW,225,2.2,3.6,89,0.00,,,0.00,WUHU216HW,2013-05-29 18:17:00,
2013-05-29 11:22:00,53.6,50.5,29.50,WSW,248,1.8,2.2,89,0.00,,,0.00,WUHU216HW,2013-05-29 18:22:00,
2013-05-29 11:27:00,53.6,50.5,29.50,WSW,248,1.8,2.2,89,0.00,,,0.00,WUHU216HW,2013-05-29 18:27:00,
2013-05-29 11:49:00,53.6,50.5,29.51,South,180,3.4,3.4,89,0.00,,,0.00,WUHU216HW,2013-05-29 18:49:00,
2013-05-29 11:54:00,53.5,50.3,29.51,SW,225,2.2,3.4,89,0.00,,,0.00,WUHU216HW,2013-05-29 18:54:00,
2013-05-29 11:59:00,53.5,50.6,29.51,SW,225,2.3,2.5,90,0.00,,,0.00,WUHU216HW,2013-05-29 18:59:00,
2013-05-29 12:04:00,53.5,50.6,29.52,South,172,2.8,4.7,90,0.00,,,0.00,WUHU216HW,2013-05-29 19:04:00,
2013-05-29 12:09:00,53.6,50.8,29.52,SW,225,1.6,4.7,90,0.00,,,0.00,WUHU216HW,2013-05-29 19:09:00,
2013-05-29 12:14:00,53.6,50.8,29.52,SSW,201,3.0,4.7,90,0.00,,,0.00,WUHU216HW,2013-05-29 19:14:00,
2013-05-29 12:19:00,53.6,50.8,29.52,WSW,248,2.5,4.7,90,0.00,,,0.00,WUHU216HW,2013-05-29 19:19:00,
2013-05-29 12:24:00,53.6,50.8,29.52,WSW,248,2.2,2.7,90,0.00,,,0.00,WUHU216HW,2013-05-29 19:24:00,
2013-05-29 12:29:00,53.6,50.5,29.53,SW,232,1.0,2.5,89,0.00,,,0.00,WUHU216HW,2013-05-29 19:29:00,
2013-05-29 12:34:00,53.6,50.5,29.53,SW,223,1.2,2.5,89,0.00,,,0.00,WUHU216HW,2013-05-29 19:34:00,
2013-05-29 12:39:00,53.6,50.5,29.53,West,270,0.2,2.5,89,0.00,,,0.00,WUHU216HW,2013-05-29 19:39:00,
2013-05-29 12:44:00,53.6,50.5,29.53,SSE,158,1.6,2.5,89,0.00,,,0.00,WUHU216HW,2013-05-29 19:44:00,
2013-05-29 12:49:00,53.6,50.5,29.53,SW,235,2.0,2.5,89,0.00,,,0.00,WUHU216HW,2013-05-29 19:49:00,
2013-05-29 12:54:00,53.6,50.5,29.53,SW,225,0.4,2.5,89,0.00,,,0.00,WUHU216HW,2013-05-29 19:54:00,
2013-05-29 12:59:00,54.0,50.9,29.53,SW,225,0.9,1.6,89,0.00,,,0.00,WUHU216HW,2013-05-29 19:59:00,
2013-05-29 13:04:00,54.2,51.0,29.53,WNW,293,0.7,0.9,89,0.00,,,0.00,WUHU216HW,2013-05-29 20:04:00,
2013-05-29 13:09:00,54.4,51.2,29.53,NNW,338,1.6,1.6,89,0.00,,,0.00,WUHU216HW,2013-05-29 20:09:00,
2013-05-29 13:14:00,54.7,51.5,29.53,SSW,203,1.1,1.8,89,0.00,,,0.00,WUHU216HW,2013-05-29 20:14:00,
2013-05-29 13:19:00,54.9,51.7,29.53,NW,315,0.4,1.8,89,0.00,,,0.00,WUHU216HW,2013-05-29 20:19:00,
2013-05-29 13:24:00,54.7,51.5,29.53,WNW,293,2.5,2.5,89,0.00,,,0.00,WUHU216HW,2013-05-29 20:24:00,
2013-05-29 13:29:00,54.5,51.3,29.54,WNW,293,2.5,2.5,89,0.00,,,0.00,WUHU216HW,2013-05-29 20:29:00,
2013-05-29 13:34:00,54.5,51.3,29.54,South,181,1.5,3.4,89,0.00,,,0.00,WUHU216HW,2013-05-29 20:34:00,
2013-05-29 13:39:00,54.7,51.5,29.54,SW,235,1.6,3.4,89,0.00,,,0.00,WUHU216HW,2013-05-29 20:39:00,
2013-05-29 13:44:00,54.7,51.2,29.54,South,180,1.8,2.9,88,0.00,,,0.00,WUHU216HW,2013-05-29 20:44:00,
2013-05-29 13:49:00,54.9,51.4,29.54,South,180,0.0,3.1,88,0.00,,,0.00,WUHU216HW,2013-05-29 20:49:00,
2013-05-29 13:54:00,55.1,51.6,29.54,SW,225,1.3,3.1,88,0.00,,,0.00,WUHU216HW,2013-05-29 20:54:00,
2013-05-29 13:59:00,55.1,51.6,29.55,SW,233,0.6,2.7,88,0.00,,,0.00,WUHU216HW,2013-05-29 20:59:00,
2013-05-29 14:04:00,55.4,51.9,29.55,SSW,202,1.0,2.7,88,0.00,,,0.00,WUHU216HW,2013-05-29 21:04:00,
2013-05-29 14:09:00,55.8,51.9,29.55,SSE,158,1.3,2.7,87,0.00,,,0.00,WUHU216HW,2013-05-29 21:09:00,
2013-05-29 14:14:00,56.2,52.3,29.55,SE,135,3.6,3.6,87,0.00,,,0.00,WUHU216HW,2013-05-29 21:14:00,
2013-05-29 14:19:00,56.3,52.2,29.55,WNW,296,1.2,3.6,86,0.00,,,0.00,WUHU216HW,2013-05-29 21:19:00,
2013-05-29 14:24:00,56.5,52.4,29.55,SSW,203,1.8,2.2,86,0.00,,,0.00,WUHU216HW,2013-05-29 21:24:00,
2013-05-29 14:29:00,56.5,52.0,29.55,SSW,203,1.8,2.2,85,0.00,,,0.00,WUHU216HW,2013-05-29 21:29:00,
2013-05-29 14:34:00,56.7,52.2,29.55,South,180,2.0,2.5,85,0.00,,,0.00,WUHU216HW,2013-05-29 21:34:00,
2013-05-29 14:39:00,56.7,52.2,29.55,SSE,148,2.2,2.5,85,0.00,,,0.00,WUHU216HW,2013-05-29 21:39:00,
2013-05-29 14:44:00,56.7,52.2,29.56,West,270,0.8,2.5,85,0.00,,,0.00,WUHU216HW,2013-05-29 21:44:00,
2013-05-29 14:49:00,56.7,52.2,29.56,SW,225,1.3,2.2,85,0.00,,,0.00,WUHU216HW,2013-05-29 21:49:00,
2013-05-29 14:54:00,56.7,52.2,29.56,South,180,2.9,2.9,85,0.00,,,0.00,WUHU216HW,2013-05-29 21:54:00,
2013-05-29 14:59:00,56.7,52.2,29.56,WNW,293,1.6,2.9,85,0.00,,,0.00,WUHU216HW,2013-05-29 21:59:00,
2013-05-29 15:04:00,56.9,52.4,29.56,South,180,2.5,3.1,85,0.00,,,0.00,WUHU216HW,2013-05-29 22:04:00,
2013-05-29 15:09:00,57.6,53.7,29.56,WSW,237,0.7,3.1,87,0.00,,,0.00,WUHU216HW,2013-05-29 22:09:00,
2013-05-29 15:14:00,58.5,54.6,29.56,SSW,203,1.1,1.1,87,0.00,,,0.00,WUHU216HW,2013-05-29 22:14:00,
2013-05-29 15:19:00,58.3,53.2,29.56,WNW,293,0.9,1.1,83,0.00,,,0.00,WUHU216HW,2013-05-29 22:19:00,
2013-05-29 15:24:00,58.3,53.2,29.56,WSW,254,0.8,1.3,83,0.00,,,0.00,WUHU216HW,2013-05-29 22:24:00,
2013-05-29 15:29:00,58.7,53.8,29.56,SE,135,0.9,1.3,84,0.00,,,0.00,WUHU216HW,2013-05-29 22:29:00,
2013-05-29 15:34:00,59.2,53.7,29.57,SSW,196,2.3,3.1,82,0.00,,,0.00,WUHU216HW,2013-05-29 22:34:00,
2013-05-29 15:39:00,59.4,53.9,29.57,WSW,251,1.3,3.1,82,0.00,,,0.00,WUHU216HW,2013-05-29 22:39:00,
2013-05-29 15:44:00,59.6,53.8,29.57,WSW,248,2.7,4.3,81,0.00,,,0.00,WUHU216HW,2013-05-29 22:44:00,
2013-05-29 15:49:00,59.2,52.7,29.57,SW,221,4.2,4.9,79,0.00,,,0.00,WUHU216HW,2013-05-29 22:49:00,
2013-05-29 15:54:00,58.9,52.4,29.57,WSW,248,2.5,4.9,79,0.00,,,0.00,WUHU216HW,2013-05-29 22:54:00,
2013-05-29 15:59:00,58.3,51.8,29.57,WSW,248,3.4,3.4,79,0.00,,,0.00,WUHU216HW,2013-05-29 22:59:00,
2013-05-29 16:04:00,57.8,51.7,29.57,SSE,160,1.7,3.4,80,0.00,,,0.00,WUHU216HW,2013-05-29 23:04:00,
2013-05-29 16:09:00,57.4,51.3,29.57,SSW,194,2.0,4.9,80,0.00,,,0.00,WUHU216HW,2013-05-29 23:09:00,
2013-05-29 16:14:00,57.2,51.1,29.58,SW,230,4.4,6.7,80,0.00,,,0.00,WUHU216HW,2013-05-29 23:14:00,
2013-05-29 16:19:00,57.4,51.7,29.58,SW,230,1.1,6.7,81,0.00,,,0.00,WUHU216HW,2013-05-29 23:19:00,
2013-05-29 16:24:00,57.8,52.0,29.58,SSE,158,1.6,2.9,81,0.00,,,0.00,WUHU216HW,2013-05-29 23:24:00,
2013-05-29 16:29:00,58.0,51.5,29.58,SW,225,4.3,4.3,79,0.00,,,0.00,WUHU216HW,2013-05-29 23:29:00,
2013-05-29 16:34:00,58.3,51.8,29.58,SSW,212,1.7,4.7,79,0.00,,,0.00,WUHU216HW,2013-05-29 23:34:00,
2013-05-29 16:39:00,58.7,52.2,29.58,SSW,205,2.0,4.7,79,0.00,,,0.00,WUHU216HW,2013-05-29 23:39:00,
2013-05-29 16:44:00,59.0,52.6,29.58,SW,225,2.9,4.0,79,0.00,,,0.00,WUHU216HW,2013-05-29 23:44:00,
2013-05-29 16:49:00,58.9,52.0,29.58,WSW,248,7.6,7.6,78,0.00,,,0.00,WUHU216HW,2013-05-29 23:49:00,
2013-05-29 16:54:00,58.7,51.8,29.58,SW,235,5.2,7.6,78,0.00,,,0.00,WUHU216HW,2013-05-29 23:54:00,
2013-05-29 16:59:00,58.7,51.5,29.58,WSW,248,8.3,8.3,77,0.00,,,0.00,WUHU216HW,2013-05-29 23:59:00,
2013-05-29 17:04:00,58.5,51.3,29.58,SW,220,2.9,8.3,77,0.00,,,0.00,WUHU216HW,2013-05-30 00:04:00,
2013-05-29 17:09:00,58.5,51.7,29.59,SW,225,3.4,3.8,78,0.00,,,0.00,WUHU216HW,2013-05-30 00:09:00,
2013-05-29 17:14:00,59.0,52.6,29.59,ESE,113,1.3,3.4,79,0.00,,,0.00,WUHU216HW,2013-05-30 00:14:00,
2013-05-29 17:19:00,59.4,52.6,29.59,South,171,4.3,5.1,78,0.00,,,0.00,WUHU216HW,2013-05-30 00:19:00,
2013-05-29 17:24:00,59.2,52.4,29.59,SW,225,3.6,5.1,78,0.00,,,0.00,WUHU216HW,2013-05-30 00:24:00,
2013-05-29 17:29:00,59.4,52.6,29.59,West,270,2.2,3.6,78,0.00,,,0.00,WUHU216HW,2013-05-30 00:29:00,
2013-05-29 17:34:00,59.8,53.3,29.59,North,0,0.6,3.4,79,0.00,,,0.00,WUHU216HW,2013-05-30 00:34:00,
2013-05-29 17:39:00,60.5,53.6,29.59,SE,135,1.8,2.7,78,0.00,,,0.00,WUHU216HW,2013-05-30 00:39:00,
2013-05-29 17:44:00,61.0,53.5,29.60,NE,45,1.3,2.7,76,0.00,,,0.00,WUHU216HW,2013-05-30 00:44:00,
2013-05-29 17:49:00,60.8,53.6,29.59,ESE,113,1.6,1.8,77,0.00,,,0.00,WUHU216HW,2013-05-30 00:49:00,
2013-05-29 17:54:00,61.4,53.7,29.59,SSW,195,1.6,2.7,76,0.00,,,0.00,WUHU216HW,2013-05-30 00:54:00,
2013-05-29 17:59:00,61.9,54.3,29.59,ENE,68,1.8,2.7,76,0.00,,,0.00,WUHU216HW,2013-05-30 00:59:00,
2013-05-29 18:04:00,61.6,53.2,29.60,South,180,10.3,10.3,74,0.00,,,0.00,WUHU216HW,2013-05-30 01:04:00,
2013-05-29 18:09:00,60.3,51.7,29.59,South,180,1.8,10.3,73,0.00,,,0.00,WUHU216HW,2013-05-30 01:09:00,
2013-05-29 18:14:00,59.4,51.1,29.59,SW,225,4.7,5.4,74,0.00,,,0.00,WUHU216HW,2013-05-30 01:14:00,
2013-05-29 18:19:00,58.9,50.6,29.60,SW,225,2.5,4.7,74,0.00,,,0.00,WUHU216HW,2013-05-30 01:19:00,
2013-05-29 18:24:00,58.5,50.6,29.60,SE,135,1.2,3.4,75,0.00,,,0.00,WUHU216HW,2013-05-30 01:24:00,
2013-05-29 18:29:00,58.3,50.8,29.60,SE,135,1.8,2.9,76,0.00,,,0.00,WUHU216HW,2013-05-30 01:29:00,
2013-05-29 18:34:00,58.7,51.5,29.60,ESE,113,0.4,2.2,77,0.00,,,0.00,WUHU216HW,2013-05-30 01:34:00,
2013-05-29 18:39:00,58.9,51.3,29.60,East,90,1.1,1.8,76,0.00,,,0.00,WUHU216HW,2013-05-30 01:39:00,
2013-05-29 18:44:00,58.9,51.7,29.61,ESE,113,1.8,1.8,77,0.00,,,0.00,WUHU216HW,2013-05-30 01:44:00,
2013-05-29 18:49:00,58.9,51.7,29.61,ESE,113,1.8,1.8,77,0.00,,,0.00,WUHU216HW,2013-05-30 01:49:00,
2013-05-29 18:54:00,58.7,51.5,29.61,ESE,113,1.3,2.0,77,0.00,,,0.00,WUHU216HW,2013-05-30 01:54:00,
2013-05-29 18:59:00,58.7,51.8,29.61,East,90,0.3,2.0,78,0.00,,,0.00,WUHU216HW,2013-05-30 01:59:00,
2013-05-29 19:04:00,58.5,51.7,29.61,SE,135,0.7,1.3,78,0.00,,,0.00,WUHU216HW,2013-05-30 02:04:00,
2013-05-29 19:09:00,58.5,52.0,29.61,ESE,113,1.3,2.0,79,0.00,,,0.00,WUHU216HW,2013-05-30 02:09:00,
2013-05-29 19:14:00,58.3,51.8,29.61,ESE,113,0.0,2.0,79,0.00,,,0.00,WUHU216HW,2013-05-30 02:14:00,
2013-05-29 19:19:00,58.1,51.7,29.61,ESE,113,0.7,0.7,79,0.00,,,0.00,WUHU216HW,2013-05-30 02:19:00,
2013-05-29 19:24:00,58.0,51.5,29.61,ESE,113,0.0,0.7,79,0.00,,,0.00,WUHU216HW,2013-05-30 02:24:00,
2013-05-29 19:29:00,57.6,51.1,29.62,SSE,158,1.6,1.6,79,0.00,,,0.00,WUHU216HW,2013-05-30 02:29:00,
2013-05-29 19:34:00,57.2,50.8,29.62,SE,135,0.4,2.2,79,0.00,,,0.00,WUHU216HW,2013-05-30 02:34:00,
2013-05-29 19:39:00,57.2,50.8,29.62,SE,135,0.2,2.2,79,0.00,,,0.00,WUHU216HW,2013-05-30 02:39:00,
2013-05-29 19:44:00,57.1,50.6,29.62,SE,135,0.9,1.6,79,0.00,,,0.00,WUHU216HW,2013-05-30 02:44:00,
2013-05-29 19:49:00,56.9,50.4,29.62,WSW,248,1.1,1.8,79,0.00,,,0.00,WUHU216HW,2013-05-30 02:49:00,
2013-05-29 19:54:00,56.3,49.9,29.62,SW,225,3.4,3.4,79,0.00,,,0.00,WUHU216HW,2013-05-30 02:54:00,
2013-05-29 19:59:00,55.8,49.3,29.63,South,188,0.8,4.7,79,0.00,,,0.00,WUHU216HW,2013-05-30 02:59:00,
2013-05-29 20:04:00,55.6,49.5,29.63,ESE,102,0.8,4.7,80,0.00,,,0.00,WUHU216HW,2013-05-30 03:04:00,
2013-05-29 20:09:00,55.4,49.0,29.63,SSE,158,0.9,1.6,79,0.00,,,0.00,WUHU216HW,2013-05-30 03:09:00,
2013-05-29 20:14:00,55.3,49.1,29.63,ESE,113,0.0,1.6,80,0.00,,,0.00,WUHU216HW,2013-05-30 03:14:00,
2013-05-29 20:19:00,55.3,49.1,29.63,ESE,113,0.4,0.4,80,0.00,,,0.00,WUHU216HW,2013-05-30 03:19:00,
2013-05-29 20:24:00,55.3,49.5,29.63,ESE,113,0.0,0.9,81,0.00,,,0.00,WUHU216HW,2013-05-30 03:24:00,
2013-05-29 20:29:00,55.1,49.7,29.63,ESE,113,0.4,0.9,82,0.00,,,0.00,WUHU216HW,2013-05-30 03:29:00,
2013-05-29 20:34:00,55.1,49.7,29.64,ESE,113,0.0,0.9,82,0.00,,,0.00,WUHU216HW,2013-05-30 03:34:00,
2013-05-29 20:39:00,54.9,49.5,29.63,ESE,113,0.4,0.4,82,0.00,,,0.00,WUHU216HW,2013-05-30 03:39:00,
2013-05-29 20:44:00,54.7,49.3,29.64,ESE,113,0.2,0.4,82,0.00,,,0.00,WUHU216HW,2013-05-30 03:44:00,
2013-05-29 20:49:00,54.7,49.3,29.64,ESE,113,0.0,0.4,82,0.00,,,0.00,WUHU216HW,2013-05-30 03:49:00,
2013-05-29 20:54:00,54.5,49.1,29.64,ESE,113,0.4,1.1,82,0.00,,,0.00,WUHU216HW,2013-05-30 03:54:00,
2013-05-29 20:59:00,54.5,49.1,29.64,ESE,113,0.0,1.1,82,0.00,,,0.00,WUHU216HW,2013-05-30 03:59:00,
2013-05-29 21:01:00,54.4,49.0,29.64,ESE,113,0.2,1.1,82,0.00,,,0.00,WUHU216HW,2013-05-30 04:01:00,
2013-05-29 21:06:00,54.4,49.3,29.64,ESE,113,0.2,0.9,83,0.00,,,0.00,WUHU216HW,2013-05-30 04:06:00,
2013-05-29 21:11:00,54.2,49.2,29.64,ESE,113,0.0,1.1,83,0.00,,,0.00,WUHU216HW,2013-05-30 04:11:00,
2013-05-29 21:16:00,54.0,49.0,29.64,ESE,113,0.2,1.1,83,0.00,,,0.00,WUHU216HW,2013-05-30 04:16:00,
2013-05-29 21:21:00,53.8,49.1,29.65,ESE,113,0.0,0.7,84,0.00,,,0.00,WUHU216HW,2013-05-30 04:21:00,
2013-05-29 21:26:00,53.6,49.0,29.65,ESE,113,0.4,0.7,84,0.00,,,0.00,WUHU216HW,2013-05-30 04:26:00,
2013-05-29 21:31:00,53.6,49.0,29.65,ESE,113,0.0,0.4,84,0.00,,,0.00,WUHU216HW,2013-05-30 04:31:00,
2013-05-29 21:36:00,53.6,49.0,29.65,ESE,113,0.0,0.4,84,0.00,,,0.00,WUHU216HW,2013-05-30 04:36:00,
2013-05-29 21:41:00,53.5,48.8,29.65,ESE,113,0.0,0.2,84,0.00,,,0.00,WUHU216HW,2013-05-30 04:41:00,
2013-05-29 21:46:00,53.5,48.8,29.66,ESE,113,0.6,0.9,84,0.00,,,0.00,WUHU216HW,2013-05-30 04:46:00,
2013-05-29 21:51:00,53.3,48.9,29.66,ESE,113,0.0,0.9,85,0.00,,,0.00,WUHU216HW,2013-05-30 04:51:00,
2013-05-29 21:56:00,53.3,48.9,29.66,ESE,113,0.4,0.4,85,0.00,,,0.00,WUHU216HW,2013-05-30 04:56:00,
2013-05-29 22:01:00,53.1,48.7,29.66,ESE,113,0.3,0.4,85,0.00,,,0.00,WUHU216HW,2013-05-30 05:01:00,
2013-05-29 22:06:00,52.9,48.5,29.66,ESE,113,0.0,0.4,85,0.00,,,0.00,WUHU216HW,2013-05-30 05:06:00,
2013-05-29 22:11:00,52.7,48.3,29.66,SE,135,0.2,0.4,85,0.00,,,0.00,WUHU216HW,2013-05-30 05:11:00,
2013-05-29 22:16:00,52.6,47.9,29.66,SE,135,0.9,0.9,84,0.00,,,0.00,WUHU216HW,2013-05-30 05:16:00,
2013-05-29 22:21:00,52.4,47.7,29.67,SE,135,0.0,0.9,84,0.00,,,0.00,WUHU216HW,2013-05-30 05:21:00,
2013-05-29 22:26:00,52.2,47.5,29.67,SE,135,0.0,0.4,84,0.00,,,0.00,WUHU216HW,2013-05-30 05:26:00,
2013-05-29 22:31:00,52.2,47.5,29.67,SE,135,0.4,0.7,84,0.00,,,0.00,WUHU216HW,2013-05-30 05:31:00,
2013-05-29 22:36:00,52.2,47.5,29.67,SE,135,0.2,0.7,84,0.00,,,0.00,WUHU216HW,2013-05-30 05:36:00,
2013-05-29 22:41:00,52.2,47.5,29.67,SE,135,0.0,0.2,84,0.00,,,0.00,WUHU216HW,2013-05-30 05:41:00,
2013-05-29 22:46:00,52.0,47.6,29.67,SE,135,0.0,0.0,85,0.00,,,0.00,WUHU216HW,2013-05-30 05:46:00,
2013-05-29 22:51:00,52.0,47.4,29.67,SE,135,0.0,0.0,84,0.00,,,0.00,WUHU216HW,2013-05-30 05:51:00,
2013-05-29 22:56:00,52.0,47.4,29.67,SE,135,0.2,0.4,84,0.00,,,0.00,WUHU216HW,2013-05-30 05:56:00,
2013-05-29 23:01:00,51.8,47.4,29.67,SE,135,0.0,0.4,85,0.00,,,0.00,WUHU216HW,2013-05-30 06:01:00,
2013-05-29 23:06:00,51.8,47.4,29.68,SE,135,0.4,0.4,85,0.00,,,0.00,WUHU216HW,2013-05-30 06:06:00,
2013-05-29 23:11:00,51.8,47.4,29.68,SE,135,0.4,0.4,85,0.00,,,0.00,WUHU216HW,2013-05-30 06:11:00,
2013-05-29 23:16:00,51.8,47.4,29.68,ESE,113,0.0,0.7,85,0.00,,,0.00,WUHU216HW,2013-05-30 06:16:00,
2013-05-29 23:21:00,51.7,47.3,29.68,ESE,113,1.1,1.1,85,0.00,,,0.00,WUHU216HW,2013-05-30 06:21:00,
2013-05-29 23:26:00,51.7,47.3,29.68,ESE,113,0.0,1.1,85,0.00,,,0.00,WUHU216HW,2013-05-30 06:26:00,
2013-05-29 23:31:00,51.5,47.1,29.68,ESE,113,0.2,0.4,85,0.00,,,0.00,WUHU216HW,2013-05-30 06:31:00,
2013-05-29 23:36:00,51.5,47.1,29.69,ESE,113,0.2,0.7,85,0.00,,,0.00,WUHU216HW,2013-05-30 06:36:00,
2013-05-29 23:41:00,51.5,47.1,29.69,ESE,113,0.0,0.7,85,0.00,,,0.00,WUHU216HW,2013-05-30 06:41:00,
2013-05-29 23:46:00,51.3,46.9,29.69,ESE,113,0.0,0.4,85,0.00,,,0.00,WUHU216HW,2013-05-30 06:46:00,
2013-05-29 23:51:00,51.3,46.9,29.69,NNE,23,0.0,0.4,85,0.00,,,0.00,WUHU216HW,2013-05-30 06:51:00,
2013-05-29 23:56:00,51.1,46.7,29.69,NNE,23,0.4,0.4,85,0.00,,,0.00,WUHU216HW,2013-05-30 06:56:00,